OneWeb SL0393

operational
NORAD ID: 50473 Int'l Des: 2021-132 Owner: ONEWEBN Country: UK Constellation: oneweb
LEOCIRCULARPOLARONEWEB_TYPE

Über OneWeb SL0393

Beschreibung wird geladen...

Live-Position

3D-Globus wird geladen...

Nächste Überflüge

Höhenverlauf

Altitude vs Time

uPlot chart will show altitude changes over time

Zweizeiliger Elementsatz

1 50473U 21132E 26036.45636135 -.00000012 00000-0 -63991-4 0 9995
2 50473 87.9108 32.0308 0002019 84.8630 275.2731 13.17649054200763
Epoch: 5. Feb. 2026 • Age: 6 hours

Aktueller Status

Höhe 1205.2 km
Geschwindigkeit 7.26 km/s
Subsatellitenpunkt 74.66°N, 174.24°E
Startdatum 27. Dez. 2021
Alter 4.1 years
Typ internet

Technische Details

Klassifizierung Payload
Masse 148.00 kg
Trockenmasse 140.00 kg
Gesamtmasse 148.00 kg
Länge 1.30 m
Durchmesser 1.00 m
Spannweite 5.00 m
Form Trapezoid+2 pan
Hersteller ONEWUS
Bus-Typ ARROW
Phasenstatus In Orbit
Besitzer/Staat ONEWEBN/UK

Große Konstellationen

Loading constellations...